Location: Unspecified
(0.0000°N, 0.0000°E)
Time: 12:12:46
(UTC+00:00)

Tiros 1 despin weight - Visible Passes

Search period start: 17 February 2019 00:00
Search period end: 27 February 2019 00:00
Orbit: 594 x 643 km, 48.2° (Epoch: 16 February)

Date Brightness Start Highest point End Pass type
(mag) Time Alt. Az. Time Alt. Az. Time Alt. Az.
17 Feb ? 20:10:10 10° SW 20:13:18 43° WSW 20:13:18 43° WSW visible
18 Feb ? 18:46:23 10° S 18:49:55 23° SE 18:52:58 12° E visible
18 Feb ? 20:27:32 10° WSW 20:30:05 23° WNW 20:30:05 23° WNW visible
19 Feb ? 19:02:06 10° SSW 19:06:32 62° SE 19:09:49 18° NE visible
20 Feb ? 19:18:51 10° SW 19:23:09 45° NW 19:26:45 14° NNE visible
21 Feb ? 05:46:41 10° N 05:50:14 22° NE 05:53:44 10° E visible
21 Feb ? 19:36:52 10° W 19:39:49 17° NW 19:42:48 10° N visible
23 Feb ? 04:40:00 10° NNE 04:42:02 13° NE 04:44:04 10° ENE visible
24 Feb ? 04:54:46 11° NNW 04:58:44 32° NE 05:02:51 10° ESE visible
24 Feb ? 18:47:05 10° WNW 18:48:21 11° NW 18:49:38 10° NNW visible
25 Feb ? 05:11:43 16° NW 05:15:21 89° SW 05:19:57 10° SE visible
26 Feb ? 03:51:32 18° ENE 03:51:32 18° ENE 03:53:51 10° E visible
26 Feb ? 05:28:41 15° WNW 05:31:58 32° SW 05:36:05 10° SSE visible
